Change the Weather History Date:

Tuesday, July 9, 2013

  Actual Average Record
Temperature  
Mean Temperature 66 °F -  
Max Temperature 79 °F 73 °F - ()
Min Temperature 54 °F 54 °F - ()
Cooling Degree Days 2    
Growing Degree Days 16 (Base 50)    
Moisture  
Dew Point 55 °F    
Average Humidity 65    
Maximum Humidity 100    
Minimum Humidity 32    
Precipitation  
Precipitation 0.00 in 0.11 in - ()
Sea Level Pressure  
Sea Level Pressure 30.21 in    
Wind  
Wind Speed 2 mph ()    
Max Wind Speed 9 mph    
Max Gust Speed -    
Visibility 8.9 miles    
Events Fog    
T = Trace of Precipitation, MM = Missing Value Source: Averaged Metar Reports

Daily Weather History Graph

Daily Weather History Graph

Search for Another Location

Airport or City:

Trip Planner

Search our weather history database for the weather conditions in past years. The results will help you decide how hot, cold, wet, or windy it might be!

Date:

Astronomy

Jul. 09, 2013 Rise Set
Actual Time 4:41 AM CEST 8:49 PM CEST
Civil Twilight 3:58 AM CEST 9:32 PM CEST
Nautical Twilight 2:56 AM CEST 10:34 PM CEST
Astronomical Twilight 1:18 AM CEST 12:13 AM CEST
Moon 6:02 AM CEST (7/9) 9:00 PM CEST (7/9)
Length of Visible Light 17h 34m
Length of Day
16h 07m
New Moon, 1% of the Moon is Illuminated
Jul 9
New Moon
Jul 16
First Quarter
Jul 22
Full
Jul 29
Last Quarter
Aug 6
New

Hourly Weather History & Observations

Time (CEST) Temp. Dew Point Humidity Pressure Visibility Wind Dir Wind Speed Gust Speed Precip Events Conditions
12:00 AM 60.8 °F 55.4 °F 82% 30.33 in - NE 3.5 mph - N/A   Clear
12:30 AM 59.0 °F 55.4 °F 88% 30.33 in - NE 2.3 mph - N/A   Clear
1:00 AM 59.0 °F 55.4 °F 88% 30.30 in - NE 2.3 mph - N/A   Clear
1:30 AM 57.2 °F 55.4 °F 94% 30.30 in - Calm Calm - N/A   Clear
2:00 AM 57 °F 54 °F 88% 30.33 in 25 mi Calm Calm - -  
2:00 AM 57.2 °F 55.4 °F 94% 30.30 in - Calm Calm - N/A   Clear
2:30 AM 57.2 °F 53.6 °F 88% 30.30 in - Calm Calm - N/A   Clear
3:00 AM 55.4 °F 53.6 °F 94% 30.30 in - Calm Calm - N/A   Clear
3:30 AM 55.4 °F 53.6 °F 94% 30.30 in - Calm Calm - N/A   Clear
4:00 AM 53.6 °F 51.8 °F 94% 30.30 in - Calm Calm - N/A   Clear
4:30 AM 53.6 °F 53.6 °F 100% 30.30 in 6.2 mi Calm Calm - N/A Fog Shallow Fog
5:00 AM 54 °F 53 °F 93% 30.31 in 12 mi Calm Calm - - Fog Patches of Fog
5:00 AM 53.6 °F 51.8 °F 94% 30.30 in 6.2 mi Calm Calm - N/A Fog Shallow Fog
5:30 AM 55.4 °F 53.6 °F 94% 30.27 in - Calm Calm - N/A   Clear
6:00 AM 55.4 °F 53.6 °F 94% 30.27 in - Calm Calm - N/A   Clear
6:30 AM 57.2 °F 55.4 °F 94% 30.27 in - SW 1.2 mph - N/A   Clear
7:00 AM 59.0 °F 55.4 °F 88% 30.27 in - Calm Calm - N/A   Clear
7:30 AM 64.4 °F 57.2 °F 77% 30.27 in - Calm Calm - N/A   Clear
8:00 AM 67 °F 57 °F 62% 30.28 in 12 mi Calm Calm - -  
8:00 AM 68.0 °F 57.2 °F 68% 30.27 in - Calm Calm - N/A   Clear
8:30 AM 68.0 °F 57.2 °F 68% 30.27 in - Variable 1.2 mph - N/A   Clear
9:00 AM 71.6 °F 55.4 °F 57% 30.27 in - Variable 2.3 mph - N/A   Clear
9:30 AM 71.6 °F 57.2 °F 60% 30.27 in - Variable 1.2 mph - N/A   Clear
10:00 AM 73.4 °F 53.6 °F 50% 30.27 in - NE 4.6 mph - N/A   Clear
10:30 AM 73.4 °F 53.6 °F 50% 30.24 in - ENE 5.8 mph - N/A   Clear
11:00 AM 74 °F 52 °F 35% 30.24 in 25 mi East 8.9 mph - -   Scattered Clouds
11:00 AM 75.2 °F 50.0 °F 41% 30.24 in 6.2 mi East 6.9 mph - N/A   Partly Cloudy
11:30 AM 75.2 °F 51.8 °F 44% 30.24 in 6.2 mi East 5.8 mph - N/A   Partly Cloudy
12:00 PM 75.2 °F 50.0 °F 41% 30.24 in 6.2 mi NE 6.9 mph - N/A   Partly Cloudy
12:30 PM 77.0 °F 53.6 °F 44% 30.24 in 6.2 mi ENE 6.9 mph - N/A   Partly Cloudy
1:00 PM 77.0 °F 53.6 °F 44% 30.21 in - Variable 3.5 mph - N/A   Clear
1:30 PM 77.0 °F 55.4 °F 47% 30.21 in - ENE 6.9 mph - N/A   Clear
2:00 PM 78 °F 55 °F 34% 30.18 in 25 mi ENE 8.9 mph - -  
2:00 PM 77.0 °F 55.4 °F 47% 30.21 in - NE 6.9 mph - N/A   Clear
2:30 PM 78.8 °F 57.2 °F 47% 30.18 in - ENE 5.8 mph - N/A   Clear
3:00 PM 78.8 °F 55.4 °F 44% 30.18 in - NNE 8.1 mph - N/A   Clear
3:30 PM 78.8 °F 53.6 °F 42% 30.18 in - ENE 9.2 mph - N/A   Clear
4:00 PM 78.8 °F 57.2 °F 47% 30.15 in - NE 5.8 mph - N/A   Clear
4:30 PM 78.8 °F 57.2 °F 47% 30.15 in - NE 6.9 mph - N/A   Clear
5:00 PM 79 °F 55 °F 32% 30.12 in 25 mi NE 8.9 mph - -  
5:00 PM 78.8 °F 53.6 °F 42% 30.15 in - ENE 6.9 mph - N/A   Clear
5:30 PM 78.8 °F 55.4 °F 44% 30.12 in - NE 6.9 mph - N/A   Clear
6:00 PM 78.8 °F 55.4 °F 44% 30.12 in - NE 6.9 mph - N/A   Clear
6:30 PM 78.8 °F 55.4 °F 44% 30.12 in - ENE 5.8 mph - N/A   Clear
7:00 PM 77.0 °F 57.2 °F 50% 30.12 in - ENE 4.6 mph - N/A   Clear
7:30 PM 77.0 °F 57.2 °F 50% 30.09 in - East 3.5 mph - N/A   Clear
8:00 PM 76 °F 55 °F 38% 30.09 in 25 mi East 4.5 mph - -  
8:00 PM 77.0 °F 55.4 °F 47% 30.09 in - SE 3.5 mph - N/A   Clear
8:30 PM 73.4 °F 55.4 °F 53% 30.09 in - ESE 3.5 mph - N/A   Clear
9:00 PM 68.0 °F 59.0 °F 73% 30.09 in - NW 2.3 mph - N/A   Clear
9:30 PM 68.0 °F 57.2 °F 68% 30.09 in - Calm Calm - N/A   Clear
10:00 PM 64.4 °F 57.2 °F 77% 30.09 in - Calm Calm - N/A   Clear
10:30 PM 64.4 °F 57.2 °F 77% 30.09 in - Calm Calm - N/A   Clear
11:00 PM 64 °F 56 °F 68% 30.09 in 19 mi Calm Calm - -  
11:00 PM 62.6 °F 57.2 °F 82% 30.09 in - Calm Calm - N/A   Clear
11:30 PM 62.6 °F 57.2 °F 82% 30.09 in - Calm Calm - N/A   Clear